TimeEST,TemperatureF,Dew PointF,Humidity,Sea Level PressureIn,VisibilityMPH,Wind Direction,Wind SpeedMPH,Gust SpeedMPH,PrecipitationIn,Events,Conditions,WindDirDegrees,DateUTC
12:54 AM,16.0,1.9,54,30.22,10.0,South,10.4,-,N/A,,Clear,180,2014-01-30 05:54:00
1:54 AM,16.0,1.9,54,30.21,10.0,South,11.5,-,N/A,,Clear,180,2014-01-30 06:54:00
2:54 AM,16.0,1.9,54,30.20,10.0,South,10.4,-,N/A,,Clear,180,2014-01-30 07:54:00
3:54 AM,16.0,1.9,54,30.19,10.0,South,12.7,-,N/A,,Clear,180,2014-01-30 08:54:00
4:54 AM,16.0,1.9,54,30.18,10.0,South,13.8,-,N/A,,Clear,180,2014-01-30 09:54:00
5:54 AM,15.1,1.9,56,30.19,10.0,South,10.4,-,N/A,,Clear,190,2014-01-30 10:54:00
6:54 AM,15.1,1.9,56,30.17,10.0,South,12.7,-,N/A,,Clear,170,2014-01-30 11:54:00
7:54 AM,15.1,1.0,54,30.15,10.0,SSE,10.4,-,N/A,,Partly Cloudy,160,2014-01-30 12:54:00
8:54 AM,18.0,3.0,52,30.16,10.0,South,12.7,-,N/A,,Mostly Cloudy,170,2014-01-30 13:54:00
9:54 AM,21.0,3.9,48,30.14,10.0,South,17.3,-,N/A,,Mostly Cloudy,190,2014-01-30 14:54:00
10:54 AM,24.1,5.0,44,30.10,10.0,South,18.4,-,N/A,,Mostly Cloudy,180,2014-01-30 15:54:00
11:54 AM,25.0,6.1,45,30.05,10.0,South,18.4,23.0,N/A,,Overcast,180,2014-01-30 16:54:00
12:54 PM,27.0,7.0,43,29.99,10.0,South,24.2,31.1,N/A,,Mostly Cloudy,180,2014-01-30 17:54:00
1:54 PM,28.9,8.1,41,29.95,10.0,South,20.7,28.8,N/A,,Mostly Cloudy,180,2014-01-30 18:54:00
2:54 PM,30.9,9.0,40,29.89,10.0,South,23.0,-,N/A,,Overcast,180,2014-01-30 19:54:00
3:54 PM,32.0,10.0,40,29.87,10.0,South,18.4,-,N/A,,Overcast,190,2014-01-30 20:54:00
4:54 PM,32.0,8.1,37,29.86,10.0,South,20.7,31.1,N/A,,Overcast,190,2014-01-30 21:54:00
5:54 PM,32.0,9.0,38,29.88,10.0,South,13.8,-,N/A,,Overcast,190,2014-01-30 22:54:00
6:54 PM,32.0,9.0,38,29.92,10.0,SSW,13.8,-,N/A,,Overcast,200,2014-01-30 23:54:00
7:54 PM,33.1,9.0,37,29.94,10.0,SW,15.0,-,N/A,,Overcast,230,2014-01-31 00:54:00
8:54 PM,33.1,12.0,42,29.94,10.0,SW,19.6,25.3,0.00,,Overcast,220,2014-01-31 01:54:00
9:54 PM,33.1,10.0,38,29.95,10.0,SW,18.4,-,N/A,,Overcast,220,2014-01-31 02:54:00
10:54 PM,33.1,10.0,38,29.96,10.0,SW,16.1,23.0,N/A,,Overcast,220,2014-01-31 03:54:00
11:54 PM,33.1,10.0,38,29.98,10.0,SW,15.0,-,N/A,,Overcast,230,2014-01-31 04:54:00